Temperature
17 16 16 16 16 16 16 16 16 15 15 14 14 14 14 14 14 13 13 13 13 13 13 13 13 13 13 13 13 13 13 13 13 13 12 12 12 12
16 16 16 16 16 16 16 15 15 15 15 14 14 13 13 13 13 13 13 13 13 13 13 13 13 12 12 12 12 12 12 12 12 12 12 12 12 12
16 16 16 16 16 16 15 15 15 15 15 14 13 13 13 12 12 12 12 12 12 12 12 12 12 12 12 12 12 12 12 11 11 11 11 11 11 11
16 16 15 15 15 15 15 15 15 14 14 14 13 12 12 12 12 12 12 12 11 11 11 11 11 11 11 11 11 11 11 11 11 11 11 11 11 10
15 15 15 15 15 15 14 14 14 14 14 14 13 12 12 12 11 11 11 11 11 11 11 11 11 11 11 11 10 10 10 10 10 10 10 10 10 10
15 15 14 14 14 14 14 14 14 13 13 13 13 12 12 11 11 11 11 11 11 10 10 10 10 10 10 10 10 10 10 10 10 10 9 9 9 9
14 14 14 14 14 14 14 13 13 13 13 13 12 12 12 11 11 11 11 11 10 10 10 10 10 10 10 9 9 9 9 9 9 9 9 9 9 9
14 14 14 13 13 13 13 13 13 13 13 13 12 12 11 11 11 11 11 11 10 10 10 10 9 9 9 9 9 9 9 9 9 8 8 8 8 8
14 13 13 13 13 12 13 13 13 12 12 12 12 12 11 11 11 11 10 10 10 10 10 10 9 9 9 9 9 9 8 8 8 8 8 8 8 8
13 13 13 13 12 12 12 12 12 12 12 11 11 11 11 11 10 10 10 10 10 10 9 10 9 9 9 8 8 8 8 8 8 8 7 7 7 7
13 13 12 12 12 12 12 12 12 11 11 11 11 11 11 10 10 10 10 10 10 10 9 9 9 9 9 8 8 8 8 7 7 7 7 7 7 7
13 12 12 12 12 12 11 11 11 11 11 10 10 10 10 10 10 10 10 10 10 10 9 9 9 9 9 9 8 8 8 7 7 7 7 7 7 6
12 12 12 12 12 11 11 11 11 10 10 10 10 10 10 9 9 9 9 9 9 9 9 9 9 9 9 9 8 8 8 7 7 7 7 7 6 6
12 11 11 11 11 11 11 11 10 10 10 10 10 10 9 9 9 9 9 9 9 8 8 8 8 8 9 9 9 8 8 7 7 7 7 6 6 6
11 11 11 11 11 10 10 10 10 10 10 10 10 9 9 9 9 9 8 8 8 8 8 8 8 8 8 8 8 8 8 7 7 7 6 6 6 6
11 11 11 10 10 10 10 10 9 9 9 9 9 9 9 9 9 9 9 8 8 8 8 8 7 7 8 7 8 8 8 7 7 7 6 6 6 6
11 10 10 10 10 10 9 9 9 9 9 9 9 9 9 9 8 8 8 8 8 8 8 8 7 7 7 7 7 7 7 7 7 6 6 6 6 6
10 10 10 10 10 10 9 9 9 9 9 9 9 9 9 9 8 8 8 8 8 8 8 8 7 7 7 7 7 7 7 7 6 6 6 6 6 6
10 10 10 10 10 9 9 9 9 9 8 8 8 8 8 8 8 8 8 8 8 8 7 7 7 7 7 8 7 6 6 6 6 6 6 6 6 6
10 10 10 10 9 9 9 9 8 8 8 8 8 8 8 8 8 8 8 7 8 7 7 7 7 7 7 7 6 6 6 6 5 5 5 5 5 5
10 10 9 9 9 9 8 8 8 8 8 8 8 7 8 8 8 8 7 7 7 7 7 7 6 6 6 6 6 6 6 5 5 5 5 5 5 5
9 9 9 9 9 8 8 8 8 8 7 7 7 7 7 7 7 7 7 7 7 7 7 7 6 6 6 6 6 6 6 5 5 5 5 4 4 5
9 9 9 9 8 8 8 8 8 7 7 7 7 7 7 7 7 7 7 7 7 7 6 6 6 6 6 6 6 6 6 5 5 5 5 5 4 4
Wind_Speed
2 1 2 1 2 1 1 2 2 2 1 2 2 3 5 7 8 9 10 13 12 11 11 11 11 11 11 12 12 12 11 10 9 8 7 6 5 4
2 2 2 2 1 1 1 1 1 1 1 2 3 3 5 7 9 9 11 14 14 12 12 12 13 13 13 13 13 13 12 12 12 12 10 9 8 8
3 3 3 3 2 2 1 1 1 1 3 3 3 5 6 5 6 8 8 9 11 13 13 13 13 14 14 13 13 13 13 13 13 12 12 12 12 11
4 4 4 3 4 3 3 3 3 3 4 5 3 4 4 4 5 5 6 8 9 13 13 13 13 13 13 13 13 13 12 12 12 12 12 12 12 12
5 5 5 5 4 4 4 4 4 4 4 4 4 4 3 3 4 4 5 5 7 10 11 12 11 12 12 12 11 11 11 11 11 11 11 11 11 12
6 6 5 5 5 4 4 4 4 4 4 4 4 4 3 3 3 3 3 3 3 6 7 8 10 10 10 10 9 9 10 10 10 10 10 9 9 9
6 6 8 9 10 7 5 5 4 3 3 3 3 3 3 3 2 2 3 3 3 2 3 4 5 5 6 7 7 7 7 7 7 7 7 7 7 7
6 6 6 7 9 10 11 9 7 4 3 2 2 3 2 2 2 1 2 1 2 1 1 2 2 3 4 5 6 5 5 5 5 5 5 5 5 6
5 5 5 6 5 6 7 7 8 7 5 2 3 2 2 1 1 2 1 0 1 1 1 1 1 2 3 6 7 4 3 2 2 3 3 3 3 3
6 6 6 5 6 4 5 6 6 7 5 4 4 3 3 2 0 1 2 2 2 2 0 0 1 1 2 5 6 4 3 2 1 1 1 1 1 1
6 7 5 6 6 4 4 6 6 6 10 11 9 8 7 5 2 0 1 1 1 1 1 2 1 1 1 2 5 6 5 4 3 2 1 2 4 6
6 7 8 7 6 5 4 5 5 5 5 6 6 6 5 5 3 2 1 1 1 0 1 2 1 2 2 1 1 3 4 5 6 5 4 3 6 7
5 5 6 8 7 6 4 4 4 3 4 4 4 4 4 3 2 3 3 3 2 2 1 2 3 3 3 2 2 2 2 2 3 4 5 5 4 5
4 5 7 7 7 6 5 4 2 0 3 3 3 3 3 2 2 3 3 4 3 3 3 3 3 4 4 4 3 2 2 3 3 3 4 3 5 6
6 8 7 5 5 5 5 1 1 2 2 3 3 3 2 2 2 2 2 2 1 2 2 3 4 4 5 4 4 3 3 3 3 4 4 5 5 5
6 7 6 3 3 5 3 2 2 3 2 2 2 2 1 1 1 1 1 0 0 1 2 1 3 4 4 5 5 5 5 4 4 4 5 6 6 6
4 4 3 3 3 3 2 2 2 2 2 2 1 1 1 1 1 1 2 2 2 2 1 1 1 3 4 5 5 5 5 5 5 4 6 7 6 6
2 3 3 2 2 2 2 2 2 2 1 1 1 1 1 2 1 1 2 3 3 3 3 3 3 4 4 2 2 5 6 6 5 5 7 7 7 7
3 3 2 2 2 1 1 1 1 2 1 1 1 1 2 2 2 2 2 3 3 4 4 4 4 5 7 6 2 3 6 7 7 7 7 7 8 7
2 3 2 2 2 1 1 1 1 1 1 1 1 1 2 2 2 3 3 4 4 4 4 4 4 5 7 8 7 6 5 6 7 8 9 8 8 7
2 2 2 2 1 1 0 1 1 1 1 2 2 2 3 3 3 4 3 3 5 5 5 5 4 5 6 7 7 6 5 5 6 7 9 10 9 8
2 2 2 1 1 1 1 1 1 1 1 2 2 3 3 4 4 4 4 5 5 5 6 5 4 5 6 7 8 8 8 7 7 11 11 10 9 10
2 1 1 1 1 1 1 1 1 1 2 2 3 3 4 4 4 4 5 5 5 6 6 6 6 6 7 8 8 9 10 10 8 8 7 10 14 16
Wind_Direction
312 299 299 317 307 280 224 209 205 193 145 115 91 65 74 76 83 83 79 79 81 80 81 82 79 77 73 69 67 66 65 65 63 59 53 47 41 34
336 347 339 339 340 323 265 222 245 205 127 84 83 89 78 84 86 86 85 86 81 81 81 82 79 77 75 73 70 67 64 63 62 60 56 52 50 47
16 24 20 6 7 8 40 51 67 116 122 98 85 90 87 89 93 93 91 88 84 85 83 83 82 78 74 71 69 67 66 66 64 62 59 56 54 52
40 42 37 42 45 38 47 61 69 90 124 121 116 107 99 104 105 104 98 93 90 93 90 87 84 82 79 76 73 71 68 66 65 62 60 57 55 53
45 48 46 49 52 57 60 68 79 93 109 125 123 113 114 111 112 103 95 90 98 105 104 99 93 90 85 80 75 72 69 67 65 64 62 59 58 57
52 52 50 50 51 61 73 79 87 99 113 122 123 124 122 127 132 124 111 100 92 95 95 106 110 105 96 87 80 75 72 69 67 66 64 62 60 58
69 65 62 61 52 46 55 67 80 94 111 121 122 126 126 133 135 124 114 116 108 109 127 127 128 116 111 104 90 81 78 75 69 65 62 61 62 61
82 81 84 76 75 74 68 62 56 72 91 108 118 118 117 122 107 130 128 137 129 134 156 125 123 101 98 89 88 88 84 81 73 65 60 59 62 63
78 74 71 72 71 77 87 95 74 63 58 70 97 92 111 107 146 146 144 160 82 127 171 121 113 97 100 95 107 106 98 92 78 65 65 65 63 57
76 75 75 71 61 64 79 77 72 66 61 66 78 66 73 75 149 173 155 137 132 111 39 293 144 126 115 117 132 137 135 131 121 91 80 58 356 321
77 70 71 78 50 27 87 88 84 81 79 79 81 83 82 75 33 160 163 193 141 121 11 302 281 262 206 162 153 164 169 173 182 195 230 291 293 277
96 89 70 63 46 20 84 88 87 82 84 92 96 105 106 99 62 9 335 304 332 96 48 308 290 282 265 204 184 183 195 191 197 204 222 265 297 294
105 95 82 71 59 38 41 75 74 84 97 99 104 102 101 93 74 42 12 353 346 1 28 299 301 292 289 285 260 268 271 248 228 225 218 225 262 288
95 90 91 89 78 62 65 62 20 276 99 90 85 83 80 75 64 52 45 34 19 16 6 332 313 309 295 289 293 285 287 291 290 299 300 237 236 235
89 86 96 115 129 103 94 62 290 80 81 82 77 67 58 53 75 101 102 96 86 55 40 349 317 309 302 304 305 306 300 297 292 297 299 296 291 283
114 122 137 134 111 93 117 111 66 52 48 68 63 52 44 68 51 35 39 39 344 102 94 355 328 315 306 312 305 304 306 303 305 305 305 296 287 283
132 143 135 130 119 106 95 82 77 79 63 52 36 17 13 20 4 344 325 307 308 315 322 265 274 285 294 295 299 308 309 307 311 321 302 295 294 292
176 142 130 127 120 110 105 92 81 66 43 30 22 5 351 347 350 339 325 321 325 326 331 327 310 294 277 256 291 302 306 311 314 309 298 299 300 301
184 143 137 135 126 108 92 71 60 54 2 348 9 358 342 334 330 319 315 315 318 323 324 323 318 314 311 312 287 276 309 312 310 308 303 300 298 299
180 148 147 140 128 108 73 40 41 40 358 334 324 317 314 312 313 310 314 320 315 315 310 312 319 320 314 314 311 301 268 298 310 310 307 301 294 288
164 154 151 142 137 135 84 315 329 327 334 313 318 316 306 302 309 312 314 318 302 307 307 312 330 303 297 297 297 301 304 254 267 292 303 301 300 296
169 169 161 161 178 171 207 265 284 298 305 293 310 310 305 298 298 303 308 309 307 306 307 311 310 297 297 299 301 304 304 300 264 245 252 267 292 301
174 179 180 184 177 183 219 254 277 291 297 299 301 300 302 302 300 299 301 303 303 305 307 308 307 301 300 301 301 302 303 303 300 292 277 244 240 247
Height
1546 1545 1544 1544 1543 1542 1542 1543 1543 1544 1545 1545 1546 1547 1547 1547 1547 1546 1546 1545 1544 1544 1543 1543 1542 1541 1540 1540 1539 1538 1538 1537 1537 1537 1536 1536 1535 1534
1544 1544 1543 1543 1542 1541 1541 1541 1542 1542 1543 1544 1545 1545 1546 1547 1546 1546 1545 1545 1544 1544 1543 1542 1542 1541 1540 1539 1539 1538 1537 1536 1535 1535 1534 1534 1533 1532
1544 1543 1542 1542 1541 1541 1540 1540 1540 1541 1541 1543 1544 1544 1545 1545 1545 1546 1546 1545 1545 1544 1544 1543 1542 1541 1540 1539 1538 1538 1537 1536 1535 1534 1533 1532 1532 1531
1543 1543 1542 1542 1540 1540 1540 1540 1540 1540 1541 1542 1543 1544 1544 1545 1545 1546 1546 1546 1546 1545 1544 1544 1543 1542 1541 1540 1539 1538 1537 1536 1535 1534 1533 1532 1531 1530
1544 1543 1542 1542 1541 1540 1540 1540 1540 1541 1542 1542 1543 1544 1545 1545 1546 1546 1547 1546 1547 1546 1545 1544 1544 1543 1542 1541 1540 1539 1538 1537 1536 1535 1533 1532 1531 1530
1544 1543 1543 1542 1542 1541 1541 1541 1541 1542 1542 1543 1543 1544 1544 1545 1546 1546 1547 1547 1547 1547 1546 1545 1544 1544 1543 1542 1541 1540 1539 1537 1536 1535 1534 1532 1531 1530
1544 1544 1543 1543 1542 1542 1542 1542 1542 1542 1543 1543 1544 1544 1545 1545 1546 1546 1546 1547 1547 1547 1547 1546 1546 1545 1544 1542 1541 1540 1539 1538 1536 1535 1534 1533 1531 1530
1545 1545 1544 1544 1543 1543 1542 1542 1542 1542 1543 1543 1544 1544 1545 1545 1545 1546 1546 1547 1546 1547 1547 1547 1546 1546 1545 1543 1542 1540 1539 1538 1537 1535 1534 1533 1531 1530
1545 1545 1546 1545 1544 1544 1544 1543 1543 1543 1543 1544 1544 1544 1544 1545 1545 1545 1545 1546 1546 1546 1546 1546 1546 1545 1544 1543 1541 1540 1539 1538 1536 1535 1534 1533 1531 1530
1546 1545 1545 1545 1545 1545 1545 1544 1544 1543 1543 1544 1544 1544 1544 1544 1544 1545 1545 1545 1545 1545 1545 1546 1545 1545 1544 1542 1541 1540 1538 1537 1536 1535 1533 1532 1530 1529
1546 1546 1546 1545 1545 1545 1545 1545 1544 1544 1544 1543 1543 1543 1543 1543 1544 1545 1545 1546 1545 1545 1545 1545 1545 1544 1543 1542 1540 1539 1537 1536 1535 1534 1532 1531 1529 1528
1547 1547 1546 1546 1546 1546 1546 1545 1545 1545 1545 1544 1544 1544 1544 1543 1543 1544 1545 1545 1545 1545 1544 1544 1543 1543 1542 1541 1540 1538 1537 1535 1533 1532 1530 1529 1528 1527
1548 1548 1547 1547 1546 1546 1546 1546 1545 1545 1545 1546 1546 1545 1545 1545 1545 1544 1544 1544 1544 1544 1543 1542 1542 1541 1541 1540 1539 1538 1536 1535 1533 1531 1529 1527 1526 1524
1548 1548 1547 1547 1547 1547 1547 1546 1546 1546 1547 1547 1547 1547 1546 1546 1545 1544 1543 1543 1542 1542 1541 1541 1541 1540 1539 1538 1537 1536 1535 1533 1531 1530 1528 1526 1523 1522
1548 1547 1548 1548 1548 1548 1548 1547 1547 1548 1548 1548 1547 1547 1547 1546 1545 1544 1543 1542 1542 1541 1541 1539 1539 1538 1538 1536 1535 1534 1532 1531 1529 1527 1525 1523 1521 1520
1548 1548 1548 1549 1549 1549 1549 1548 1548 1548 1548 1548 1548 1547 1547 1546 1545 1545 1544 1543 1543 1541 1540 1538 1537 1537 1536 1535 1533 1532 1530 1529 1527 1525 1523 1521 1519 1517
1548 1549 1550 1550 1550 1550 1550 1549 1549 1549 1548 1548 1548 1547 1546 1546 1545 1544 1543 1543 1542 1541 1539 1538 1536 1535 1533 1533 1531 1530 1528 1526 1524 1522 1519 1518 1516 1514
1548 1549 1549 1550 1550 1550 1550 1549 1549 1548 1548 1548 1547 1547 1546 1545 1544 1544 1543 1542 1541 1540 1538 1537 1535 1534 1532 1530 1529 1528 1526 1524 1522 1519 1517 1515 1512 1511
1548 1549 1549 1549 1550 1550 1549 1549 1549 1548 1547 1547 1547 1546 1545 1544 1544 1543 1542 1541 1539 1538 1536 1535 1534 1532 1530 1528 1526 1525 1523 1521 1519 1516 1514 1512 1509 1507
1548 1548 1548 1548 1549 1549 1548 1548 1548 1547 1546 1546 1546 1545 1544 1543 1542 1541 1540 1539 1537 1536 1534 1533 1532 1530 1529 1527 1524 1522 1520 1518 1515 1513 1510 1508 1505 1503
1546 1547 1547 1547 1547 1547 1547 1547 1547 1546 1545 1545 1544 1543 1543 1542 1541 1540 1538 1536 1535 1534 1532 1531 1529 1527 1526 1524 1522 1519 1517 1514 1511 1509 1507 1504 1501 1499
1546 1546 1546 1546 1546 1546 1546 1546 1545 1545 1544 1543 1543 1542 1541 1540 1539 1537 1536 1535 1533 1532 1530 1528 1526 1525 1523 1521 1518 1516 1513 1511 1508 1504 1502 1500 1498 1495
1544 1545 1545 1545 1545 1545 1545 1544 1544 1543 1542 1542 1541 1540 1539 1538 1536 1535 1534 1532 1531 1529 1527 1525 1524 1522 1520 1518 1515 1512 1510 1507 1504 1501 1498 1495 1493 1490